time_stamp(utc),avg(mph),gust(mph),direction(deg),12m_air_temp(f),sonic_u(cm/s),sonic_v(cm/s),sonic_w(cm/s),pressure,2m_air_temp(f),pyranometer(W/m^2)
"2020-02-15 00:04:35+00",17.6,19.6,,27.7,-161,746,35,1031.97,26.8,0
"2020-02-15 00:09:35+00",15.6,17.6,,27.5,-192,663,42,1032.08,26.7,0
"2020-02-15 00:14:35+00",17.0,19.0,,27.5,-163,705,32,1032.14,26.6,0
"2020-02-15 00:19:35+00",15.2,19.2,,27.4,-214,627,20,1032.14,26.6,0
"2020-02-15 00:24:35+00",16.7,18.7,,27.2,-110,707,28,1032.32,26.5,0
"2020-02-15 00:29:35+00",15.4,17.4,,27.1,-138,639,28,1032.37,26.4,0
"2020-02-15 00:34:35+00",15.2,18.2,,27,-166,656,22,1032.53,26.2,0
"2020-02-15 00:39:35+00",15.8,18.8,,26.9,-195,669,27,1032.66,26.1,0
"2020-02-15 00:44:35+00",16.8,17.8,,26.8,-223,715,21,1032.69,26.1,0
"2020-02-15 00:49:35+00",16.0,18.0,,26.7,-171,692,23,1032.89,26,0
"2020-02-15 00:54:35+00",19.4,21.4,,26.7,-246,809,30,1032.95,25.9,0
"2020-02-15 00:59:35+00",15.7,17.7,,26.5,-178,661,37,1033.01,25.9,0
"2020-02-15 01:04:35+00",14.0,15.0,,26.3,-66,596,23,1033.27,25.7,0
"2020-02-15 01:09:35+00",15.1,17.1,,26.2,-222,623,19,1033.33,25.5,0
"2020-02-15 01:14:35+00",15.3,16.3,,26.1,-201,643,27,1033.46,25.4,0
"2020-02-15 01:19:35+00",13.2,15.2,,26,-110,569,21,1033.72,25.2,0
"2020-02-15 01:24:35+00",12.7,14.7,,25.8,-175,532,27,1033.55,25,0
"2020-02-15 01:29:35+00",17.1,19.1,,25.8,-124,726,10,1033.63,25,0
"2020-02-15 01:34:35+00",16.3,19.3,,25.7,-99,684,28,1033.77,24.9,0
"2020-02-15 01:39:35+00",14.9,17.9,,25.5,-233,624,37,1033.84,24.8,0
"2020-02-15 01:44:35+00",17.1,21.1,,25.5,-141,726,11,1033.92,24.7,0
"2020-02-15 01:49:35+00",11.8,13.8,,25.2,-98,513,28,1034,24.6,0
"2020-02-15 01:54:35+00",12.6,16.6,,25.2,-114,550,37,1034.01,24.4,0
"2020-02-15 01:59:35+00",13.6,17.6,,25.1,-122,576,46,1034.12,24.3,0
"2020-02-15 02:04:35+00",13.2,15.2,,25,-123,574,39,1034.17,24.1,0
"2020-02-15 02:09:35+00",14.8,16.8,,24.8,-133,643,18,1034.29,24,0
"2020-02-15 02:14:35+00",16.1,19.1,,24.8,-108,693,23,1034.41,23.9,0
"2020-02-15 02:19:35+00",16.7,18.7,,24.7,-166,707,25,1034.54,23.9,0
"2020-02-15 02:24:35+00",14.5,17.5,,24.6,-140,607,30,1034.73,23.9,0
"2020-02-15 02:29:35+00",17.3,20.3,,24.5,-194,743,25,1034.64,23.8,0
"2020-02-15 02:34:35+00",15.2,18.2,,24.3,-170,659,32,1034.71,23.6,0
"2020-02-15 02:39:35+00",13.7,16.7,,24.2,-169,572,31,1034.84,23.6,0
"2020-02-15 02:44:35+00",13.7,16.7,,24.1,-171,569,34,1034.92,23.5,0
"2020-02-15 02:49:35+00",13.6,15.6,,24,-177,562,19,1035,23.4,0
"2020-02-15 02:54:35+00",11.6,13.6,,23.8,-27,499,13,1035.11,23.2,0
"2020-02-15 02:59:35+00",14.1,17.1,,23.6,-61,615,21,1035.07,22.9,0
"2020-02-15 03:04:35+00",12.7,15.7,,23.4,-63,551,18,1035.14,22.7,0
"2020-02-15 03:09:35+00",13.1,17.1,,23.4,-36,591,27,1035.38,22.6,0
"2020-02-15 03:14:35+00",15.7,17.7,,23.3,-59,677,21,1035.49,22.5,0
"2020-02-15 03:19:35+00",14.7,17.7,,23.2,-94,635,42,1035.44,22.4,0
"2020-02-15 03:24:35+00",17.6,19.6,,23.1,58,740,29,1035.54,22.3,0
"2020-02-15 03:29:35+00",16.1,18.1,,23,-66,680,3,1035.42,22.2,0
"2020-02-15 03:34:35+00",11.7,13.7,,22.8,-59,498,27,1035.65,22.1,0
"2020-02-15 03:39:35+00",14.7,17.7,,22.8,-144,597,44,1035.56,22,0
"2020-02-15 03:44:35+00",14.3,17.3,,22.7,-117,624,35,1035.66,22,0
"2020-02-15 03:49:35+00",12.2,14.2,,22.5,-86,542,33,1035.64,21.9,0
"2020-02-15 03:54:35+00",14.6,16.6,,22.4,31,627,20,1035.8,21.7,0
"2020-02-15 03:59:35+00",16.7,18.7,,22.2,-10,736,-1,1035.61,21.6,0
"2020-02-15 04:04:35+00",15.6,18.6,,22,-53,689,10,1035.65,21.4,0
"2020-02-15 04:09:35+00",19.7,22.7,,22,-38,820,38,1035.74,21.3,0
"2020-02-15 04:14:35+00",18.3,21.3,,21.9,-201,777,33,1035.77,21.3,0
"2020-02-15 04:19:35+00",15.6,19.6,,21.8,-126,673,37,1035.82,21.3,0
"2020-02-15 04:24:35+00",14.9,17.9,,21.7,-94,635,40,1035.88,21.2,0
"2020-02-15 04:29:35+00",15.6,19.6,,21.5,-47,653,29,1035.98,21.1,0
"2020-02-15 04:34:35+00",15.8,19.8,,21.4,41,663,23,1036.14,20.8,0
"2020-02-15 04:39:35+00",20.1,23.1,,21.3,-145,896,2,1036.26,20.7,0
"2020-02-15 04:44:35+00",15.7,18.7,,21.2,-131,667,32,1036.17,20.7,0
"2020-02-15 04:49:35+00",15.9,18.9,,21.1,-146,664,48,1036.16,20.5,0
"2020-02-15 04:54:35+00",15.0,18.0,,21.1,-133,642,26,1036.23,20.5,0
"2020-02-15 04:59:35+00",14.6,17.6,,21,-125,623,23,1036.32,20.4,0
"2020-02-15 05:04:35+00",15.6,18.6,,20.9,-175,674,47,1036.44,20.4,0
"2020-02-15 05:09:35+00",15.6,18.6,,20.7,-178,667,26,1036.39,20.3,0
"2020-02-15 05:14:35+00",15.4,18.4,,20.6,-156,650,25,1036.49,20.2,0
"2020-02-15 05:19:35+00",17.0,19.0,,20.4,-175,736,19,1036.65,20.1,0
"2020-02-15 05:24:35+00",14.7,17.7,,20.3,-169,635,19,1036.52,20,0
"2020-02-15 05:29:35+00",13.3,15.3,,20.2,-159,567,17,1036.56,19.9,0
"2020-02-15 05:34:35+00",15.9,17.9,,20.1,-200,689,29,1036.73,19.8,0
"2020-02-15 05:39:35+00",14.9,17.9,,20,-198,618,41,1036.75,19.8,0
"2020-02-15 05:44:35+00",15.4,17.4,,20,-162,652,30,1036.88,19.7,0
"2020-02-15 05:49:35+00",15.6,18.6,,19.9,-166,664,17,1036.87,19.6,0
"2020-02-15 05:54:35+00",13.8,15.8,,19.9,-108,599,24,1036.86,19.5,0
"2020-02-15 05:59:35+00",14.9,17.9,,19.8,-75,658,3,1036.78,19.3,0
"2020-02-15 06:04:35+00",16.0,18.0,,19.6,-56,701,11,1036.84,19.1,0
"2020-02-15 06:09:35+00",16.7,17.7,,19.6,-59,721,20,1036.72,19,0
"2020-02-15 06:14:35+00",15.6,17.6,,19.5,-55,675,7,1036.87,19,0
"2020-02-15 06:19:35+00",13.3,16.3,,19.3,-79,578,31,1036.9,18.9,0
"2020-02-15 06:24:35+00",17.8,20.8,,19.3,-54,778,14,1036.97,18.8,0
"2020-02-15 06:29:35+00",12.4,14.4,,19.3,-23,542,25,1037.13,18.8,0
"2020-02-15 06:34:35+00",16.0,18.0,,19.2,-78,690,2,1037.15,18.7,0
"2020-02-15 06:39:35+00",13.6,15.6,,19.1,-93,586,14,1037.1,18.6,0
"2020-02-15 06:44:35+00",15.1,17.1,,18.9,-172,656,30,1037.09,18.5,0
"2020-02-15 06:49:35+00",15.4,18.4,,18.8,-161,656,23,1036.91,18.5,0
"2020-02-15 06:54:35+00",13.6,15.6,,18.7,-97,578,31,1036.92,18.4,0
"2020-02-15 06:59:35+00",14.0,17.0,,18.7,-72,605,11,1036.82,18.3,0
"2020-02-15 07:04:35+00",15.2,17.2,,18.7,-145,671,12,1036.91,18.2,0
"2020-02-15 07:09:35+00",14.6,18.6,,18.5,-207,607,26,1036.93,18.2,0
"2020-02-15 07:14:35+00",13.7,16.7,,18.5,-163,580,55,1037.02,18.2,0
"2020-02-15 07:19:35+00",17.2,19.2,,18.3,-209,734,24,1037.07,18.1,0
"2020-02-15 07:24:35+00",14.1,18.1,,18.3,-185,574,39,1037.16,18,0
"2020-02-15 07:29:35+00",13.4,16.4,,18.1,-168,560,43,1036.93,17.9,0
"2020-02-15 07:34:35+00",14.0,15.0,,18,-148,589,38,1036.88,17.7,0
"2020-02-15 07:39:35+00",14.7,17.7,,17.8,-148,625,36,1036.98,17.6,0
"2020-02-15 07:44:35+00",13.3,15.3,,17.7,-119,585,21,1036.99,17.5,0
"2020-02-15 07:49:35+00",14.2,16.2,,17.7,-152,628,25,1036.86,17.3,0
"2020-02-15 07:54:35+00",14.8,16.8,,17.6,-119,629,16,1037.01,17.3,0
"2020-02-15 07:59:35+00",13.1,15.1,,17.6,-176,554,22,1037.13,17.3,0
"2020-02-15 08:04:35+00",14.6,18.6,,17.5,-195,617,39,1037.14,17.3,0
"2020-02-15 08:09:35+00",13.1,16.1,,17.4,-155,564,34,1037.17,17.2,0
"2020-02-15 08:14:35+00",14.8,17.8,,17.3,-130,626,19,1037.27,17.1,0
"2020-02-15 08:19:35+00",14.6,16.6,,17.3,-125,629,-6,1037.27,17,0
"2020-02-15 08:24:35+00",14.6,17.6,,17.2,-108,619,34,1037.36,16.9,0
"2020-02-15 08:29:35+00",14.7,16.7,,17.2,-116,622,7,1037.39,16.8,0
"2020-02-15 08:34:35+00",12.9,14.9,,17.2,-157,536,35,1037.4,16.8,0
"2020-02-15 08:39:35+00",14.5,15.5,,17.1,-150,609,23,1037.41,16.8,0
"2020-02-15 08:44:35+00",14.3,16.3,,17,-194,594,34,1037.52,16.8,0
"2020-02-15 08:49:35+00",12.4,14.4,,17,-118,520,12,1037.49,16.7,0
"2020-02-15 08:54:35+00",11.1,13.1,,17,-48,475,14,1037.55,16.6,0
"2020-02-15 08:59:35+00",12.1,14.1,,17,-43,525,16,1037.67,16.5,0
"2020-02-15 09:04:35+00",9.7,10.7,,16.9,-71,407,29,1037.55,16.4,0
"2020-02-15 09:09:35+00",11.4,14.4,,16.8,-47,490,38,1037.62,16.3,0
"2020-02-15 09:14:35+00",11.8,12.8,,16.8,-143,503,33,1037.8,16.2,0
"2020-02-15 09:19:35+00",13.8,15.8,,16.6,-202,579,27,1037.82,16.2,0
"2020-02-15 09:24:35+00",14.0,16.0,,16.4,-197,605,30,1037.99,16.2,0
"2020-02-15 09:29:35+00",15.7,17.7,,16.3,-228,652,32,1038.07,16.1,0
"2020-02-15 09:34:35+00",15.1,16.1,,16.1,-98,647,20,1037.99,16,0
"2020-02-15 09:39:35+00",15.2,17.2,,15.9,-184,640,27,1038.16,15.8,0
"2020-02-15 09:44:35+00",16.9,20.9,,15.9,-167,705,18,1038.1,15.7,0
"2020-02-15 09:49:35+00",15.1,17.1,,15.9,-143,633,11,1038.08,15.6,0
"2020-02-15 09:54:35+00",14.0,16.0,,15.8,-104,597,12,1038.04,15.5,0
"2020-02-15 09:59:35+00",13.7,14.7,,15.7,-78,600,9,1038.14,15.4,0
"2020-02-15 10:04:35+00",12.8,14.8,,15.7,-54,548,20,1038.12,15.3,0
"2020-02-15 10:09:35+00",11.3,12.3,,15.7,-94,487,23,1038.24,15.3,0
"2020-02-15 10:14:35+00",10.2,12.2,,15.8,-4,442,14,1037.99,15.2,0
"2020-02-15 10:19:35+00",10.6,11.6,,15.9,2,458,10,1038.19,15.3,0
"2020-02-15 10:24:35+00",13.9,15.9,,15.9,24,603,19,1038.07,15.4,0
"2020-02-15 10:29:35+00",11.4,14.4,,15.8,8,484,16,1038.27,15.4,0
"2020-02-15 10:34:35+00",12.5,14.5,,15.8,-4,542,13,1038.24,15.3,0
"2020-02-15 10:39:35+00",12.8,15.8,,15.7,-12,563,19,1038.14,15.2,0
"2020-02-15 10:44:35+00",12.0,14.0,,15.6,42,512,15,1038.29,15.1,0
"2020-02-15 10:49:35+00",13.2,15.2,,15.6,50,583,10,1038.05,15.1,0
"2020-02-15 10:54:35+00",11.7,13.7,,15.5,40,508,14,1038.1,15,0
"2020-02-15 10:59:35+00",10.8,12.8,,15.5,39,451,18,1037.96,15,0
"2020-02-15 11:04:35+00",11.2,12.2,,15.5,38,473,6,1038.06,15,0
"2020-02-15 11:09:35+00",10.0,12.0,,15.7,127,396,0,1038.03,14.9,0
"2020-02-15 11:14:35+00",11.2,12.2,,15.9,103,484,2,1038.06,15.1,0
"2020-02-15 11:19:35+00",11.9,12.9,,15.9,67,510,0,1038.05,15.2,0
"2020-02-15 11:24:35+00",12.4,14.4,,15.9,108,521,5,1038.01,15.3,0
"2020-02-15 11:29:35+00",11.3,12.3,,15.8,67,484,-2,1038.15,15.3,0
"2020-02-15 11:34:35+00",10.4,12.4,,15.6,-32,461,18,1038.22,15.1,0
"2020-02-15 11:39:35+00",11.0,13.0,,15.5,-9,487,7,1038.3,15,0
"2020-02-15 11:44:35+00",13.3,14.3,,15.3,-15,589,14,1038.44,14.9,0
"2020-02-15 11:49:35+00",13.0,14.0,,15.3,-10,562,12,1038.55,14.8,0
"2020-02-15 11:54:35+00",11.2,12.2,,15.1,-31,485,23,1038.6,14.7,0
"2020-02-15 11:59:35+00",13.2,16.2,,15,13,582,8,1038.63,14.6,0
"2020-02-15 12:04:35+00",12.9,14.9,,14.9,19,569,12,1038.64,14.6,0
"2020-02-15 12:09:35+00",13.1,14.1,,15,34,570,-2,1038.65,14.6,0
"2020-02-15 12:14:35+00",13.2,14.2,,15.1,10,582,14,1038.63,14.7,0
"2020-02-15 12:19:35+00",13.5,15.5,,15.2,32,589,14,1038.74,14.9,0
"2020-02-15 12:24:35+00",12.6,14.6,,15.4,23,550,2,1038.85,15.1,0
"2020-02-15 12:29:35+00",12.0,13.0,,15.5,51,520,7,1038.59,15.5,0
"2020-02-15 12:34:35+00",11.7,12.7,,15.7,67,489,9,1038.67,15.9,0
"2020-02-15 12:39:35+00",9.4,12.4,,15.9,29,396,28,1038.81,16.5,0
"2020-02-15 12:44:35+00",10.2,12.2,,16.4,97,422,14,1038.56,17.2,0
"2020-02-15 12:49:35+00",8.9,11.9,,16.8,148,350,15,1038.35,18,0
"2020-02-15 12:54:35+00",10.9,12.9,,17.2,126,456,1,1038.47,18.5,0
"2020-02-15 12:59:35+00",11.9,13.9,,17.1,118,513,-7,1038.48,18.9,0
"2020-02-15 13:04:35+00",11.9,12.9,,17.3,101,500,-6,1038.41,19,0
"2020-02-15 13:09:35+00",11.1,13.1,,17.6,139,442,-24,1038.37,19.4,0
"2020-02-15 13:14:35+00",10.3,12.3,,17.8,45,442,2,1038.29,19.8,0
"2020-02-15 13:19:35+00",9.5,12.5,,18.3,85,396,16,1038.44,20.4,0
"2020-02-15 13:24:35+00",9.8,11.8,,18.9,133,386,2,1038.47,21,0
"2020-02-15 13:29:35+00",10.5,12.5,,19.1,209,391,6,1038.6,21.4,0.1
"2020-02-15 13:34:35+00",10.5,12.5,,19.5,147,411,-5,1038.63,22,0.8
"2020-02-15 13:39:35+00",11.1,13.1,,19.6,199,415,-9,1038.76,22.3,3.2
"2020-02-15 13:44:35+00",9.8,10.8,,19.9,217,352,-8,1038.86,22.6,10.7
"2020-02-15 13:49:35+00",8.5,12.5,,20.4,153,325,27,1038.81,23.2,19
"2020-02-15 13:54:35+00",10.2,11.2,,20.3,102,428,-23,1038.88,23.4,27.6
"2020-02-15 13:59:35+00",7.5,10.5,,20.7,145,277,3,1038.67,23.6,37
"2020-02-15 14:04:35+00",8.6,10.6,,21,108,328,-23,1038.66,24,41.5
"2020-02-15 14:09:35+00",7.0,8.0,,21.2,162,238,-9,1038.56,24.5,48.1
"2020-02-15 14:14:35+00",7.9,8.9,,21.8,56,324,32,1038.67,25,58.4
"2020-02-15 14:19:35+00",6.1,7.1,,22.1,35,257,13,1038.7,25.4,61.2
"2020-02-15 14:24:35+00",5.4,7.4,,22.5,34,218,5,1038.65,25.7,68
"2020-02-15 14:29:35+00",3.8,4.8,,23,-1,149,-8,1038.51,26.6,70.3
"2020-02-15 14:34:35+00",5.3,6.3,,23.3,-47,190,25,1038.52,27,59.9
"2020-02-15 14:39:35+00",6.7,7.7,,23.6,173,213,-2,1038.4,27.7,80.4
"2020-02-15 14:44:35+00",3.4,5.4,,23.9,6,150,-2,1038.37,27.9,82.4
"2020-02-15 14:49:35+00",4.2,5.2,,23.8,164,45,-3,1038.26,27.8,90.7
"2020-02-15 14:54:35+00",5.4,6.4,,24,184,129,-4,1038.11,28.1,80.3
"2020-02-15 14:59:35+00",5.1,6.1,,24.3,137,150,9,1038.25,28.2,104.4
"2020-02-15 15:04:35+00",3.3,4.3,,24.3,51,101,-11,1038.21,28.5,111.3
"2020-02-15 15:09:35+00",4.5,6.5,,25.2,146,73,11,1037.99,29.3,116.2
"2020-02-15 15:14:35+00",3.3,4.3,,24.8,79,40,-46,1037.87,29.4,118
"2020-02-15 15:19:35+00",3.5,5.5,,24.6,113,59,-47,1037.88,29.4,122.5
"2020-02-15 15:24:35+00",2.2,3.2,,25.4,31,91,-19,1037.9,30.1,130.1
"2020-02-15 15:29:35+00",5.0,7.0,,25.2,180,96,-27,1037.78,30.8,132.7
"2020-02-15 15:34:35+00",3.5,4.5,,25.2,91,74,-68,1037.75,30,135.7
"2020-02-15 15:39:35+00",2.5,3.5,,25.7,20,22,-15,1037.8,29.4,139.4
"2020-02-15 15:44:35+00",2.6,3.6,,25.7,24,99,-11,1037.71,30.1,137.2
"2020-02-15 15:49:35+00",2.6,3.6,,26.2,22,126,-55,1037.74,30.9,149.9
"2020-02-15 15:54:35+00",5.4,7.4,,26,207,-23,-12,1037.6,30.6,15.9
"2020-02-15 15:59:35+00",3.7,4.7,,25.8,88,129,-21,1037.61,30.3,161.2
"2020-02-15 16:04:35+00",2.6,3.6,,26.5,24,138,-32,1037.46,30.9,161.1
"2020-02-15 16:09:35+00",2.7,3.7,,26.7,-39,-64,-32,1037.4,30.3,166.5
"2020-02-15 16:14:35+00",2.8,3.8,,26.7,-115,7,-79,1037.25,30.8,167.6
"2020-02-15 16:19:35+00",3.0,4.0,,27.1,-131,27,18,1036.94,30.5,167.3
"2020-02-15 16:24:35+00",5.4,7.4,,26.7,-215,-50,-9,1036.78,31.8,178
"2020-02-15 16:29:35+00",5.0,9.0,,26.4,-209,-75,40,1036.8,33.2,176.2
"2020-02-15 16:34:35+00",7.5,8.5,,26.2,-323,-20,15,1036.74,33.9,143.3
"2020-02-15 16:39:35+00",3.2,5.2,,26.2,-104,-49,-22,1036.74,34.1,177.4
"2020-02-15 16:44:35+00",4.8,5.8,,26.5,-92,-150,-1,1036.55,31.7,165.5
"2020-02-15 16:49:35+00",3.0,5.0,,26.9,1,-50,-71,1036.44,30.3,169.8
"2020-02-15 16:54:35+00",3.8,4.8,,27,-119,-85,2,1036.41,31.5,177.8
"2020-02-15 16:59:35+00",3.5,4.5,,27.2,-4,-114,19,1036.21,31.1,168.3
"2020-02-15 17:04:35+00",3.9,5.9,,27.6,-3,-136,0,1036.05,30.1,168.9
"2020-02-15 17:09:35+00",4.9,7.9,,27.2,-105,-161,2,1036.01,30.6,173.3
"2020-02-15 17:14:35+00",5.6,7.6,,26.9,-146,-210,12,1035.79,30.6,171.4
"2020-02-15 17:19:35+00",2.7,3.7,,27.1,-113,58,-1,1035.69,30.9,170.5
"2020-02-15 17:24:35+00",5.4,6.4,,27.4,32,-205,-5,1035.6,31.1,169.7
"2020-02-15 17:29:35+00",6.2,8.2,,27.4,140,-189,13,1035.49,30.3,161.4
"2020-02-15 17:34:35+00",4.7,6.7,,27.6,-130,-165,14,1035.6,31.2,166.3
"2020-02-15 17:39:35+00",2.1,3.1,,27.2,-60,-31,-29,1035.51,31.8,160.7
"2020-02-15 17:44:35+00",3.1,4.1,,27.7,101,-70,-17,1035.5,32.1,152
"2020-02-15 17:49:35+00",3.3,4.3,,28.3,-82,-110,13,1035.61,32.6,163.1
"2020-02-15 17:54:35+00",4.6,5.6,,28.3,45,-137,-20,1035.46,31.9,134.6
"2020-02-15 17:59:35+00",5.6,6.6,,28,176,-72,24,1035.37,31.6,141
"2020-02-15 18:04:35+00",5.0,7.0,,27.9,51,-135,-16,1035.24,31.1,142.5
"2020-02-15 18:09:35+00",6.5,7.5,,27.7,174,-86,-34,1034.96,31,131
"2020-02-15 18:14:35+00",6.6,8.6,,28.2,-25,-233,-49,1034.88,30.6,132.6
"2020-02-15 18:19:35+00",8.4,9.4,,28.1,138,-206,-22,1034.74,30.7,104.5
"2020-02-15 18:24:35+00",7.7,9.7,,27.7,155,-260,-10,1034.69,30.4,98.2
"2020-02-15 18:29:35+00",8.6,11.6,,27.8,156,-248,-34,1034.63,30.2,80.2
"2020-02-15 18:34:35+00",8.4,10.4,,27.6,204,-232,-18,1034.52,30.4,97.6
"2020-02-15 18:39:35+00",8.0,10.0,,28,125,-265,-33,1034.48,30.5,41.5
"2020-02-15 18:44:35+00",11.1,13.1,,28,194,-394,-27,1034.35,30,26
"2020-02-15 18:49:35+00",11.0,13.0,,28.1,106,-372,-43,1034.27,30,16.2
"2020-02-15 18:54:35+00",8.4,13.4,,28.4,-20,-289,-18,1034.08,29.9,2.5
"2020-02-15 18:59:35+00",12.5,13.5,,28.2,116,-450,-34,1034,29.5,4.3
"2020-02-15 19:04:35+00",10.5,13.5,,28.4,-25,-358,-72,1033.98,29.6,14.8
"2020-02-15 19:09:35+00",10.6,13.6,,28.5,-11,-285,-75,1033.78,29.7,14.6
"2020-02-15 19:14:35+00",10.1,12.1,,28.5,96,-330,-40,1033.7,29.7,0.8
"2020-02-15 19:19:35+00",8.0,11.0,,28.3,20,-240,-35,1033.88,29.7,2.5
"2020-02-15 19:24:35+00",6.8,8.8,,28.5,0,-262,-6,1033.86,29.9,12.2
"2020-02-15 19:29:35+00",9.2,11.2,,28.4,93,-361,-35,1033.84,29.9,1.8
"2020-02-15 19:34:35+00",9.3,11.3,,28.4,85,-348,-13,1033.57,30,29.6
"2020-02-15 19:39:35+00",8.4,11.4,,28.5,23,-340,-48,1033.49,29.7,2.2
"2020-02-15 19:44:35+00",10.8,11.8,,28.6,131,-422,-25,1033.37,29.9,2
"2020-02-15 19:49:35+00",10.2,12.2,,28.5,123,-372,-30,1033.4,29.8,1.2
"2020-02-15 19:54:35+00",11.0,14.0,,28.6,77,-418,-15,1033.32,29.8,9.6
"2020-02-15 19:59:35+00",10.4,12.4,,28.7,105,-379,-4,1033.34,29.9,14.9
"2020-02-15 20:04:35+00",9.9,10.9,,28.9,-37,-308,-71,1033.2,30,2.2
"2020-02-15 20:09:35+00",8.6,11.6,,28.8,72,-326,-7,1033.17,30,6.5
"2020-02-15 20:14:35+00",9.7,12.7,,29.3,-31,-357,-13,1033.15,30.3,2.1
"2020-02-15 20:19:35+00",13.5,15.5,,29.2,143,-543,-44,1032.89,30.2,0
"2020-02-15 20:24:35+00",9.1,12.1,,29.6,-77,-326,-7,1032.98,30.2,0
"2020-02-15 20:29:35+00",9.9,12.9,,29.2,55,-386,-9,1033.06,30.1,0
"2020-02-15 20:34:35+00",8.9,11.9,,29.5,-4,-363,16,1032.89,30.1,0
"2020-02-15 20:39:35+00",11.8,13.8,,29.3,-167,-474,-24,1032.91,29.9,0
"2020-02-15 20:44:35+00",11.1,14.1,,29.3,-90,-458,-17,1032.91,29.8,0
"2020-02-15 20:49:35+00",9.1,11.1,,29.3,2,-396,-8,1032.93,29.8,0
"2020-02-15 20:54:35+00",10.6,12.6,,29.4,-158,-422,-14,1032.88,29.9,0
"2020-02-15 20:59:35+00",14.0,16.0,,29.4,-231,-557,-25,1032.79,30.1,0
"2020-02-15 21:04:35+00",9.8,11.8,,29.5,-25,-416,-19,1032.77,30,0
"2020-02-15 21:09:35+00",7.7,10.7,,29.8,-79,-314,5,1032.88,30.2,0
"2020-02-15 21:14:35+00",10.4,11.4,,29.9,-171,-410,-5,1032.93,30.5,0
"2020-02-15 21:19:35+00",7.9,8.9,,29.7,-104,-329,1,1033.01,30.4,0
"2020-02-15 21:24:35+00",9.5,14.5,,29.9,-181,-379,7,1032.92,30.5,0
"2020-02-15 21:29:35+00",8.9,11.9,,29.7,-152,-333,7,1032.98,30.5,0
"2020-02-15 21:34:35+00",12.7,13.7,,29.5,-454,-311,16,1032.99,30.4,0
"2020-02-15 21:39:35+00",8.2,11.2,,29.4,-229,-293,9,1033.04,30.3,0
"2020-02-15 21:44:35+00",10.8,12.8,,29.4,-340,-348,2,1033.07,30.1,0
"2020-02-15 21:49:35+00",8.8,9.8,,29.3,-271,-298,17,1033.12,29.9,0
"2020-02-15 21:54:35+00",11.1,12.1,,29.4,-341,-381,7,1033.08,29.8,0
"2020-02-15 21:59:35+00",8.6,12.6,,29.5,-251,-302,24,1033.19,29.7,0
"2020-02-15 22:04:35+00",8.6,10.6,,29.5,-291,-256,23,1033.26,29.8,0
"2020-02-15 22:09:35+00",9.5,11.5,,29.4,-244,-368,13,1033.22,29.7,0
"2020-02-15 22:14:35+00",11.0,13.0,,29.4,-359,-310,19,1033.11,29.4,0
"2020-02-15 22:19:35+00",10.1,13.1,,29.3,-238,-376,-10,1033.08,29.3,0
"2020-02-15 22:24:35+00",12.7,13.7,,29.4,-384,-435,-2,1033.1,29.3,0
"2020-02-15 22:29:35+00",11.0,12.0,,29.3,-325,-387,-5,1032.98,29.2,0
"2020-02-15 22:34:35+00",10.5,12.5,,29.2,-305,-376,5,1032.79,29,0
"2020-02-15 22:39:35+00",9.7,11.7,,29.1,-207,-371,-4,1032.67,28.9,0
"2020-02-15 22:44:35+00",11.2,13.2,,29,-135,-460,-10,1032.58,28.6,0
"2020-02-15 22:49:35+00",9.3,11.3,,28.9,-122,-385,3,1032.54,28.6,0
"2020-02-15 22:54:35+00",10.0,11.0,,28.8,-178,-387,-4,1032.6,28.4,0
"2020-02-15 22:59:35+00",9.5,10.5,,29,-201,-357,4,1032.63,28.4,0
"2020-02-15 23:04:35+00",9.5,10.5,,28.9,-239,-348,2,1032.74,28.4,0
"2020-02-15 23:09:35+00",8.1,9.1,,29,-134,-322,0,1032.55,28.4,0
"2020-02-15 23:14:35+00",9.2,11.2,,29,-156,-360,1,1032.51,28.4,0
"2020-02-15 23:19:35+00",9.0,10.0,,29.2,-211,-337,-1,1032.61,28.5,0
"2020-02-15 23:24:35+00",8.4,10.4,,29.1,-171,-324,3,1032.4,28.4,0
"2020-02-15 23:29:35+00",9.2,11.2,,29.1,-183,-350,6,1032.36,28.4,0
"2020-02-15 23:34:35+00",7.5,9.5,,28.9,-85,-307,-2,1032.29,28.2,0
"2020-02-15 23:39:35+00",8.6,10.6,,28.8,-125,-338,-6,1032.16,28.1,0
"2020-02-15 23:44:35+00",7.8,9.8,,28.8,-140,-300,-2,1032.07,28,0
"2020-02-15 23:49:35+00",7.1,8.1,,28.9,-134,-273,0,1032.13,28,0
"2020-02-15 23:54:35+00",8.3,10.3,,29,-145,-323,5,1032.01,28.1,0
"2020-02-15 23:59:35+00",8.7,9.7,,29.1,-156,-350,-8,1032.06,28.2,0
